Location: Bydgoszcz
(53.1222°N, 17.9945°E)
Time: 22:41:19
(UTC+01:00)

ISS - Visible Passes

Search period start: 23 January 2019 00:00
Search period end: 02 February 2019 00:00
Orbit: 404 x 410 km, 51.6° (Epoch: 24 January)

Date Brightness Start Highest point End Pass type
(mag) Time Alt. Az. Time Alt. Az. Time Alt. Az.
23 Jan -1.2 18:40:29 10° S 18:41:05 13° S 18:41:05 13° S visible
24 Jan -1.5 17:50:17 10° SSE 17:51:43 12° SE 17:52:04 12° SE visible
24 Jan -0.7 19:24:29 10° SW 19:24:47 12° SW 19:24:47 12° SW visible
25 Jan -2.3 18:33:26 10° SW 18:35:41 27° S 18:35:41 27° S visible
26 Jan -2.1 17:42:33 10° SSW 17:45:09 21° SSE 17:46:30 17° ESE visible
26 Jan -1.3 19:18:01 10° WSW 19:19:14 20° WSW 19:19:14 20° WSW visible
27 Jan -3.3 18:26:46 10° SW 18:29:57 45° SSE 18:30:00 45° SSE visible
28 Jan -2.7 17:35:37 10° SW 17:38:39 34° SSE 17:40:43 17° E visible
28 Jan -1.9 19:11:39 10° WSW 19:13:26 29° WSW 19:13:26 29° WSW visible
29 Jan -3.6 18:20:17 10° WSW 18:23:33 61° S 18:24:07 50° ESE visible
29 Jan -0.3 19:56:41 10° W 19:56:50 11° W 19:56:50 11° W visible
30 Jan -3.3 17:28:58 10° WSW 17:32:10 50° SSE 17:34:47 14° E visible
30 Jan -2.4 19:05:16 10° W 19:07:30 38° WSW 19:07:30 38° WSW visible
31 Jan -3.7 18:13:51 10° W 18:17:09 69° S 18:18:09 40° ESE visible
31 Jan -0.5 19:50:20 10° W 19:50:52 14° W 19:50:52 14° W visible
01 Feb -3.5 17:22:27 10° WSW 17:25:43 64° S 17:28:49 11° E visible
01 Feb -2.9 18:58:52 10° W 19:01:32 47° WSW 19:01:32 47° WSW visible
